Terminal Aerodrome Forecast
Issued by NWS

Home | Current Version | Previous Version | Text Only | Print | Product List | Glossary Off
Versions: 1 2 3 4 5 6 7 8 9 10 11 12 13 14 15 16 17 18 19 20 21 22 23 24 25 26 27 28 29 30 31

177
FTUS43 KPAH 300126 AAA
TAFCGI
TAF AMD
KCGI 300126Z 3001/3024 VRB02KT P6SM BKN150
     FM300800 00000KT 3SM BR SCT080
      TEMPO 3008/3012 1SM BR BCFG BKN005
     FM301500 29003KT P6SM BKN015
     FM301800 27006KT P6SM SCT030=

USA.gov is the U.S. government's official web portal to all federal, state and local government web resources and services.